Weather in Germenchik

Russia / Republic of Dagestan     43°32′23″N   46°43′35″E
temp.,
°C
wind,
m/s
gust,
m/s
humid.,
%
clouds,
%
prec.,
mm/h
press.,
hPa
HPBL,
m
27 november, sat
sat2700:00+8ese368899 0.0 1022288
03:00+7e239531 0.0 102164
06:00+6nw119265 0.0 102026
09:00+8nw11840 0.0 1020147
12:00+11e237349 0.0 1018659
15:00+11ese44663 0.0 1018686
18:00+8e348576 0.0 101962
21:00+6e359354 0.0 101992
28 november, sun
sun2800:00+6ese1195100 0.0 101911
03:00+6sse1195100 0.0 101910
06:00+5se2394100 0.0 101740
09:00+7e358498 0.0 1017173
12:00+12e576591 0.0 1015626
15:00+12e4669100 0.0 1015521
18:00+8ene3492100 0.0 101685
21:00+8ese2295100 0.0 101726
29 november, mon
mon2900:00+7se119419 0.0 101712
03:00+6ese22935 0.0 101718
06:00+6se22890 0.0 101712
09:00+9ese36820 0.0 1018183
12:00+14se566362 0.0 1017660
15:00+14ese57695 0.0 1016541
18:00+10ese713870 0.0 1016304
21:00+10ese714880 0.0 1014298
30 november, tue
tue3000:00+9ese7149117 0.0 1010259
03:00+10ese815809 0.0 1007251
06:00+9ese597986 0.0 1004177
09:00+11ese3466100 0.0 1003114
12:00+14wnw91455100 0.0 1006643
15:00+15wnw7105998 0.0 1008868
18:00+12wsw46748 0.0 100879
21:00+12se22740 0.0 100412
1 december, wed
wed100:00+10e510800 0.0 999158
03:00+9e411840 0.0 996225
06:00+8w58925 0.0 1000145
09:00+10w59806 0.0 1003308
12:00+14wnw713621 0.0 10051006
15:00+11wnw71252100 0.0 10091223
18:00+9nw3757100 0.0 1011932
21:00+7ssw4577100 2.1 1014587